^^
Saratoga-Weather Station Historical Data
Daily Summary for May 18, 2020 Units:  English    Metric   Both
Daily Weekly Monthly Yearly Custom
  High: Low: Average:
Temperature: 56.7 °F 52.7 °F 54.1 °F
Dew Point: 50 °F 47.7 °F 48.6 °F
Humidity: 86% 73% 81%
Wind Speed: 0.9mph 0mph 0.1mph
Wind Gust: 3mph - -
Wind- - SSW
Pressure: 29.9 in 29.9 in -
Precipitation: 0 in    
Historical Graphs
 
 
Tabular Data for May 18, 2020
Time Temperature Dew Point Pressure Wind Wind Speed Wind Gust Humidity Rainfall Rate (Hourly) solar
00:01 55.8 °F 47.7 °F 29.9 in WNW 0.9 mph 1 mph 74% 0 in 0 W/m2
00:06 55.9 °F 48.2 °F 29.9 in Calm     75% 0 in 0 W/m2
00:11 55.9 °F 47.8 °F 29.9 in Calm     74% 0 in 0 W/m2
00:16 56.1 °F 48 °F 29.9 in Calm     74% 0 in 0 W/m2
00:21 56.5 °F 48.4 °F 29.9 in Calm     74% 0 in 0 W/m2
00:26 56.5 °F 48.4 °F 29.9 in Calm   1 mph 74% 0 in 0 W/m2
00:31 56.7 °F 48 °F 29.9 in WNW 0.9 mph 1 mph 73% 0 in 0 W/m2
00:36 56.7 °F 48 °F 29.9 in Calm     73% 0 in 0 W/m2
00:41 56.7 °F 48 °F 29.9 in Calm     73% 0 in 0 W/m2
00:46 56.5 °F 48.4 °F 29.9 in Calm   1 mph 74% 0 in 0 W/m2
00:51 56.3 °F 48.2 °F 29.9 in Calm   1 mph 74% 0 in 0 W/m2
00:56 56.1 °F 48 °F 29.9 in Calm     74% 0 in 0 W/m2
01:02 55.9 °F 47.8 °F 29.9 in WNW 0.9 mph 1 mph 74% 0 in 0 W/m2
01:07 55.9 °F 48.2 °F 29.9 in Calm     75% 0 in 0 W/m2
01:12 55.9 °F 48.2 °F 29.9 in Calm   1 mph 75% 0 in 0 W/m2
01:17 55.8 °F 48 °F 29.9 in Calm     75% 0 in 0 W/m2
01:22 55.8 °F 48.4 °F 29.9 in Calm   1 mph 76% 0 in 0 W/m2
01:27 55.6 °F 48.2 °F 29.9 in Calm     76% 0 in 0 W/m2
01:32 55.4 °F 48 °F 29.9 in Calm     76% 0 in 0 W/m2
01:37 55.2 °F 47.8 °F 29.9 in Calm     76% 0 in 0 W/m2
01:42 55 °F 48 °F 29.9 in Calm     77% 0 in 0 W/m2
01:47 54.9 °F 47.8 °F 29.9 in Calm     77% 0 in 0 W/m2
01:52 54.7 °F 48 °F 29.9 in Calm     78% 0 in 0 W/m2
01:57 54.3 °F 48 °F 29.9 in Calm     79% 0 in 0 W/m2
02:02 54.3 °F 48 °F 29.9 in Calm   1 mph 79% 0 in 0 W/m2
02:07 54.3 °F 48 °F 29.9 in Calm     79% 0 in 0 W/m2
02:12 54.1 °F 47.8 °F 29.9 in Calm   1 mph 79% 0 in 0 W/m2
02:17 54.1 °F 48 °F 29.9 in Calm     80% 0 in 0 W/m2
02:22 54.1 °F 48 °F 29.9 in Calm     80% 0 in 0 W/m2
02:27 54.1 °F 48 °F 29.9 in Calm     80% 0 in 0 W/m2
02:32 54.1 °F 48 °F 29.9 in Calm     80% 0 in 0 W/m2
02:37 54.1 °F 48 °F 29.9 in Calm     80% 0 in 0 W/m2
02:42 54.1 °F 48 °F 29.9 in Calm   1 mph 80% 0 in 0 W/m2
02:47 54.1 °F 48 °F 29.9 in Calm     80% 0 in 0 W/m2
02:52 54 °F 48 °F 29.9 in Calm     80% 0 in 0 W/m2
02:57 54 °F 48.2 °F 29.9 in Calm     81% 0 in 0 W/m2
03:02 53.8 °F 48 °F 29.9 in Calm     81% 0 in 0 W/m2
03:07 53.8 °F 48 °F 29.9 in Calm     81% 0 in 0 W/m2
03:12 53.6 °F 47.8 °F 29.9 in Calm     81% 0 in 0 W/m2
03:17 53.4 °F 48 °F 29.9 in Calm     82% 0 in 0 W/m2
03:22 53.4 °F 48 °F 29.9 in Calm     82% 0 in 0 W/m2
03:27 53.4 °F 48.4 °F 29.9 in Calm     83% 0 in 0 W/m2
03:32 53.4 °F 48.4 °F 29.9 in Calm     83% 0 in 0 W/m2
03:37 53.4 °F 48.4 °F 29.9 in Calm     83% 0 in 0 W/m2
03:42 53.2 °F 48.2 °F 29.9 in Calm     83% 0 in 0 W/m2
03:47 53.2 °F 48.2 °F 29.9 in Calm     83% 0 in 0 W/m2
03:52 53.2 °F 48.2 °F 29.9 in Calm     83% 0 in 0 W/m2
03:57 53.2 °F 48.6 °F 29.9 in Calm     84% 0 in 0 W/m2
04:02 53.2 °F 48.6 °F 29.9 in Calm     84% 0 in 0 W/m2
04:07 53.1 °F 48.4 °F 29.9 in WNW 0.9 mph 2 mph 84% 0 in 0 W/m2
04:12 53.2 °F 48.6 °F 29.9 in Calm     84% 0 in 0 W/m2
04:17 53.1 °F 48.4 °F 29.9 in Calm     84% 0 in 0 W/m2
04:22 53.1 °F 48.4 °F 29.9 in Calm     84% 0 in 0 W/m2
04:27 52.9 °F 48.2 °F 29.9 in Calm     84% 0 in 0 W/m2
04:32 52.9 °F 48.2 °F 29.9 in Calm     84% 0 in 0 W/m2
04:37 52.9 °F 48.2 °F 29.9 in Calm     84% 0 in 0 W/m2
04:42 52.7 °F 48.4 °F 29.9 in Calm     85% 0 in 0 W/m2
04:47 52.7 °F 48.4 °F 29.9 in Calm     85% 0 in 0 W/m2
04:52 52.7 °F 48.4 °F 29.9 in Calm     85% 0 in 0 W/m2
04:57 52.9 °F 48.7 °F 29.9 in Calm     86% 0 in 0 W/m2
05:02 53.1 °F 48.9 °F 29.9 in Calm     86% 0 in 0 W/m2
05:07 53.1 °F 48.7 °F 29.9 in Calm     85% 0 in 0 W/m2
05:12 53.2 °F 48.9 °F 29.9 in Calm     85% 0 in 0 W/m2
05:17 53.2 °F 48.9 °F 29.9 in Calm     85% 0 in 0 W/m2
05:22 53.2 °F 48.9 °F 29.9 in Calm     85% 0 in 0 W/m2
05:27 53.2 °F 48.9 °F 29.9 in Calm     85% 0 in 0 W/m2
05:32 53.2 °F 48.9 °F 29.9 in Calm     85% 0 in 0 W/m2
05:37 53.2 °F 48.9 °F 29.9 in Calm     85% 0 in 0 W/m2
05:42 53.4 °F 49.3 °F 29.9 in Calm     86% 0 in 0 W/m2
05:47 53.4 °F 49.3 °F 29.9 in Calm     86% 0 in 0 W/m2
05:52 53.4 °F 49.1 °F 29.9 in Calm     85% 0 in 0 W/m2
05:57 53.4 °F 49.3 °F 29.9 in Calm     86% 0 in 0 W/m2
06:02 53.6 °F 49.5 °F 29.9 in Calm     86% 0 in 0 W/m2
06:07 53.6 °F 49.5 °F 29.9 in Calm     86% 0 in 0 W/m2
06:12 53.6 °F 49.5 °F 29.9 in Calm     86% 0 in 0 W/m2
06:17 53.6 °F 49.5 °F 29.9 in Calm     86% 0 in 0 W/m2
06:22 53.8 °F 49.6 °F 29.9 in Calm     86% 0 in 0 W/m2
06:27 53.8 °F 49.6 °F 29.9 in Calm     86% 0 in 0 W/m2
06:32 53.8 °F 49.6 °F 29.9 in NE 0.9 mph 3 mph 86% 0 in 0 W/m2
06:37 54 °F 49.6 °F 29.9 in NNE 0.9 mph 1 mph 85% 0 in 0 W/m2
06:42 54 °F 49.6 °F 29.9 in Calm     85% 0 in 0 W/m2
06:47 54.1 °F 49.8 °F 29.9 in Calm     85% 0 in 0 W/m2
06:52 54.1 °F 49.8 °F 29.9 in Calm     85% 0 in 5 W/m2
06:57 54.1 °F 49.8 °F 29.9 in Calm   1 mph 85% 0 in 9 W/m2
07:02 54 °F 49.6 °F 29.9 in Calm     85% 0 in 12 W/m2
07:07 54 °F 49.6 °F 29.9 in Calm   1 mph 85% 0 in 18 W/m2
07:13 54 °F 49.8 °F 29.9 in Calm   1 mph 86% 0 in 23 W/m2
07:18 54 °F 49.8 °F 29.9 in Calm     86% 0 in 32 W/m2
07:23 54 °F 49.8 °F 29.9 in Calm     86% 0 in 32 W/m2
07:28 54.1 °F 50 °F 29.9 in Calm   1 mph 86% 0 in 33 W/m2
Juneau County Weather
Compliments of Weather Underground - 4 mb